Sexton Summit, OR

11:30 AM PST on November 11, 2019 (GMT -0800)
Sexton Summit

Weather History for KSXT - October, 2019

Change the Weather History Date:

Monday, October 14, 2019

  Actual Average Record
Temperature  
Mean Temperature 50 °F -  
Max Temperature 61 °F 57 °F 80 °F (2015)
Min Temperature 39 °F 42 °F 33 °F (2017)
Degree Days  
Heating Degree Days 16    
Moisture  
Dew Point 39 °F    
Average Humidity 72    
Maximum Humidity 93    
Minimum Humidity 46    
Precipitation  
Precipitation 0.00 in - - ()
Sea Level Pressure  
Sea Level Pressure 30.00 in    
Wind  
Wind Speed 6 mph (SE)    
Max Wind Speed 12 mph    
Max Gust Speed -    
Visibility 8 miles    
Events Fog , Rain    
Averages and records for this station are not official NWS values.
T = Trace of Precipitation, MM = Missing Value Source: NWS Daily Summary

Daily Weather History Graph

Daily Weather History Graph

Search for Another Location

Airport or City:

Astronomy

Oct. 14, 2019 Rise Set
Actual Time 7:25 AM PDT 6:32 PM PDT
Civil Twilight 6:56 AM PDT 7:01 PM PDT
Nautical Twilight 6:24 AM PDT 7:33 PM PDT
Astronomical Twilight 5:51 AM PDT 8:06 PM PDT
Moon 7:25 PM PDT (10/14) 8:02 AM PDT (10/14)
Length of Visible Light 12h 04m
Length of Day
11h 07m
Full, 99% of the Moon is Illuminated
Oct 14
Full
Oct 21
Last Quarter
Oct 27
New
Nov 4
First Quarter
Nov 12
Full

Hourly Weather History & Observations

Time (PDT) Temp. Windchill Dew Point Humidity Pressure Visibility Wind Dir Wind Speed Gust Speed Precip Events Conditions
12:41 AM 42.1 °F 36.1 °F 39.9 °F 92% 30.01 in 1.2 mi NNW 10.4 mph - N/A   Mostly Cloudy
12:56 AM 42.1 °F 37.7 °F 39.9 °F 92% 29.97 in 0.5 mi North 6.9 mph - N/A Fog Fog
1:08 AM 42.1 °F 36.6 °F 39.9 °F 92% 30.00 in 4.0 mi NNE 9.2 mph - N/A   Mostly Cloudy
1:17 AM 42.8 °F 37.5 °F 39.2 °F 87% 30.00 in 10.0 mi North 9.2 mph - N/A   Scattered Clouds
1:56 AM 43.0 °F 39.5 °F 39.0 °F 86% 29.96 in 10.0 mi ESE 5.8 mph - N/A   Clear
2:56 AM 42.1 °F 39.2 °F 39.0 °F 89% 29.96 in 10.0 mi North 4.6 mph - N/A   Clear
3:56 AM 43.0 °F 41.3 °F 37.9 °F 82% 29.96 in 10.0 mi SE 3.5 mph - N/A   Clear
4:56 AM 44.1 °F - 37.9 °F 79% 29.97 in 10.0 mi Calm Calm - N/A   Clear
5:56 AM 42.1 °F 38.4 °F 37.9 °F 85% 29.99 in 10.0 mi SSE 5.8 mph - N/A   Clear
6:56 AM 42.1 °F - 37.0 °F 82% 30.01 in 10.0 mi Calm Calm - N/A   Clear
7:56 AM 42.1 °F 38.4 °F 39.0 °F 89% 30.00 in 10.0 mi ESE 5.8 mph - 0.00 in Rain Light Rain
8:30 AM 39.9 °F 37.8 °F 37.0 °F 89% 30.02 in 0.2 mi North 3.5 mph - 0.00 in Fog Fog
8:39 AM 41.0 °F 39.0 °F 39.0 °F 93% 30.02 in 0.2 mi NNE 3.5 mph - 0.00 in Fog Fog
8:56 AM 41.0 °F - 39.0 °F 93% 30.03 in 0.2 mi Calm Calm - 0.00 in Fog , Rain Light Rain
9:10 AM 44.1 °F 40.1 °F 41.0 °F 89% 30.02 in 7.0 mi SE 6.9 mph - 0.00 in   Scattered Clouds
9:56 AM 48.0 °F - 41.0 °F 77% 30.01 in 10.0 mi East 4.6 mph - 0.00 in   Clear
10:06 AM 48.0 °F - 42.1 °F 80% 30.03 in 10.0 mi Variable 4.6 mph - N/A   Partly Cloudy
10:56 AM 52.0 °F - 42.1 °F 69% 30.00 in 10.0 mi Variable 3.5 mph - N/A   Clear
11:56 AM 55.0 °F - 42.1 °F 62% 29.99 in 10.0 mi Variable 5.8 mph - N/A   Clear
12:56 PM 57.0 °F - 41.0 °F 55% 29.99 in 10.0 mi Variable 3.5 mph - N/A   Clear
1:56 PM 57.9 °F - 41.0 °F 53% 29.98 in 10.0 mi Variable 4.6 mph - N/A   Clear
2:56 PM 60.1 °F - 39.0 °F 46% 29.98 in 10.0 mi Variable 3.5 mph - N/A   Clear
3:56 PM 59.0 °F - 39.0 °F 48% 29.98 in 10.0 mi Calm Calm - N/A   Clear
4:56 PM 59.0 °F - 39.9 °F 49% 29.98 in 10.0 mi Calm Calm - N/A   Clear
5:56 PM 57.0 °F - 39.0 °F 51% 29.98 in 10.0 mi SW 3.5 mph - N/A   Clear
6:56 PM 55.9 °F - 39.0 °F 53% 29.99 in 8.0 mi South 3.5 mph - N/A   Clear
7:09 PM 55.9 °F - 37.0 °F 49% 30.03 in 1.8 mi South 4.6 mph - N/A   Haze
7:56 PM 55.9 °F - 37.9 °F 51% 30.01 in 8.0 mi SW 6.9 mph - N/A   Clear
8:56 PM 55.0 °F - 39.0 °F 55% 30.03 in 10.0 mi SSW 8.1 mph - N/A   Clear
9:56 PM 53.1 °F - 39.9 °F 61% 30.02 in 10.0 mi South 9.2 mph - N/A   Clear
10:56 PM 53.1 °F - 39.0 °F 59% 30.01 in 10.0 mi SSE 11.5 mph - N/A   Clear
11:56 PM 52.0 °F - 37.9 °F 59% 30.00 in 10.0 mi South 11.5 mph - N/A   Clear